SL-8 DEB *

Satellite information

Favourite Embed

Satellite Type and Status

DEBRISIN ORBIT

Key statistics

Satellite SL-8 DEB * at a glance.

Uptime

15683

Days in orbit

Revolutions

≈ 14.6

Per day

Orbit

LEO

Low Earth Orbit

Inclination

74.1

Latest

Satellite identification and parameters

Extended collection of information and parameters for SL-8 DEB *.

Object identification

Identified? True

Debris? True

Object name: SL-8 DEB *

International designator: 1982-051D

Object number (NORAD): 18502

Object ID (CCSDS): 18502

Country: COMMONWEALTH OF INDEPENDENT STATES (CIS)

Current information (Y/N): Y

RCS size: SMALL

Orbital parameters

Period: 98.678 minutes

Inclination: 74.0593 deg

SMA: 7073.582 km

Apoapsis: 696.061 km

Periapsis: 694.833 km

RAAN: 177.5389 deg

Eccentricy: 0.0000868

Argument of periapsis: 292.7253 deg

Mean anomaly: 125.4729 deg

Mean motion: 14.59297074 rev/day

Mean motion (dot): 0.00002054 rev/day2

B* drag term: 0.00044059 1/REarth

Two-line elements (TLE)

Creation date: May 9, 2025, 2:46 a.m.

Reference frame: TEME

Reference center: EARTH

Epoch: May 8, 2025, 10:29 p.m. UTC

TLE line 0: 0 SL-8 DEB *

TLE line 1: 1 18502U 82051D 25128.93731162 .00002054 00000-0 44059-3 0 9998

TLE line 2: 2 18502 74.0593 177.5389 0000868 292.7253 125.4729 14.59297074112516

Live tracking on map

Real-time ground track for satellite SL-8 DEB *.

In-orbit conjunctions

A list of the most updated potential collisions computed for object SL-8 DEB *.

Target Orbit TCA Probability of collision Miss distance Type
CZ-6A DEB LEO 2024-11-05 02:55:20 0.008607512 39.0 (m) DEBRIS
CZ-6A DEB LEO 2024-10-22 21:36:32 0.0002644107 996.0 (m) DEBRIS

Associated space launch

Military communications satellite

SL-8 DEB * was lifted into orbit during the mission ‘Kosmos-3M | Strela-2M 28’, on board a Kosmos-3M space rocket.

The launch took place on June 1, 1982, 4:37 a.m. from 132/1 (132L).

For more information about the launch, click the button.

Launch to space Kosmos-3M | Strela-2M 28
Kosmos-3M | Strela-2M 28

Agency: N/A

Status: Launch Successful

Launch date: June 1, 1982, 4:37 a.m. UTC

Rocket: Kosmos-3M

Launch pad: 132/1 (132L)

Location: Plesetsk Cosmodrome, Russian Federation

...

Latest news about this satellite

There are no fresh news available about this satellite. Check back as we update our databases every day.


Newsletter sign-up

Weekly statistics, charts and insights to help you stay on top of the space industry.